Regional Weather Roundup
Issued by NWS

Current Version | Previous Version | Text Only | Print | Product List | Glossary On
Versions: 1 2 3 4 5 6 7 8 9 10 11 12 13 14 15 16 17 18 19 20 21 22 23 24 25 26 27 28 29 30 31 32 33 34 35 36 37 38 39 40 41 42 43 44 45 46 47 48 49 50
585
ASUS43 KLSX 191507
RWRMO

WEATHER SUMMARY FOR MISSOURI
NATIONAL WEATHER SERVICE SPRINGFIELD MO
1000 AM CDT MON APR 19 2021

NOTE: "FAIR" INDICATES FEW OR NO CLOUDS BELOW 12,000 FEET WITH NO
       SIGNIFICANT WEATHER AND/OR OBSTRUCTIONS TO VISIBILITY.
       CURRENT SKY AND/OR WEATHER CONDITIONS ARE NOT AVAILABLE FOR
       CHILLICOTHE AND FARMINGTON.

MOZ001>031-035>038-043-044-053-054-191600-
...NORTHERN AND WESTERN MISSOURI...

CITY           SKY/WX    TMP DP  RH WIND       PRES   REMARKS
KANSAS CTY INT MOSUNNY   52  40  63 N13       29.99R
KANSAS C DTWN  SUNNY     51  37  58 NW10      29.98R
LEE`S SUMMIT   SUNNY     54  38  54 NW10      29.97R
ST JOSEPH      CLOUDY    44  34  67 N20       30.05R
CHILLICOTHE      N/A     49  38  65 N9        29.98R
KIRKSVILLE     MOSUNNY   50  39  66 N10       29.95R

$$
MOZ066>068-077>081-088>096-101>105-191600-
...SOUTHWEST MISSOURI...

CITY           SKY/WX    TMP DP  RH WIND       PRES   REMARKS
SPRINGFIELD    SUNNY     57  39  51 W9        30.00S
JOPLIN         SUNNY     59  36  42 W13       30.02S
BRANSON        SUNNY     59  37  44 SW3       30.04S

$$
MOZ032>034-039>042-045>050-055>058-069>072-191600-
...CENTRAL MISSOURI...

CITY           SKY/WX    TMP DP  RH WIND       PRES   REMARKS
COLUMBIA       SUNNY     59  37  44 SW14      29.96S
JEFFERSON CITY SUNNY     58  37  45 SW10      29.97F
ROLLA          SUNNY     56  41  57 MISG      29.99F
SEDALIA        SUNNY     57  39  51 SW14G22   29.97S
WARRENSBURG    SUNNY     55  37  50 SW12      29.97S
OSAGE BEACH    SUNNY     58  37  45 W9        30.00F

$$
MOZ051-052-059>065-191600-
...EAST CENTRAL MISSOURI...

CITY           SKY/WX    TMP DP  RH WIND       PRES   REMARKS
ST LOUIS INTL  SUNNY     59  38  45 W12       29.97S
SPIRIT OF STL  SUNNY     58  39  49 W12       29.97S
ST CHARLES     SUNNY     60  36  40 W10       29.95F

$$
MOZ072>076-082>087-097>100-106>115-191600-
...SOUTH CENTRAL AND SOUTHEAST MISSOURI...

CITY           SKY/WX    TMP DP  RH WIND       PRES   REMARKS
CAPE GIRARDEAU SUNNY     56  47  71 VRB3      30.02S
FARMINGTON     SUNNY     59  37  44 W10       30.01S
POPLAR BLUFF   SUNNY     55  44  66 S3        30.03S
WEST PLAINS    SUNNY     55  40  56 W8        30.03S

$$




USA.gov is the U.S. government's official web portal to all federal, state and local government web resources and services.